This is the latest recevied weather packets stored in our database for station/object OK1OBR-13. If no packets are shown the sender has not sent any weather packets the latest 1 day(s).
| Time | Temp. | Humidity | Pressure | Rain* | Wind** | Luminosity | Snow |
|---|---|---|---|---|---|---|---|
| 1778080861 | 14.44° C | 80% | 927.9 hPa | 0.51 mm | - | - | - |
| 1778080321 | 14.44° C | 75% | 927.7 hPa | 0.51 mm | - | - | - |
| 1778080202 | 14.44° C | 75% | 927.8 hPa | 0.51 mm | - | - | - |
| 1778080141 | 14.44° C | 73% | 927.7 hPa | 0.51 mm | - | - | - |
| 1778079961 | 14.44° C | 73% | 927.7 hPa | 0.51 mm | - | - | - |
| 1778079901 | 14.44° C | 72% | 927.8 hPa | 0.51 mm | - | - | - |
| 1778079781 | 14.44° C | 72% | 927.8 hPa | 0.51 mm | - | - | - |
| 1778079661 | 13.89° C | 77% | 927.7 hPa | 0.51 mm | - | - | - |
| 1778079421 | 14.44° C | 78% | 927.9 hPa | 0.25 mm | - | - | - |
| 1778079362 | 14.44° C | 78% | 927.9 hPa | 0.25 mm | - | - | - |
| 1778079242 | 14.44° C | 76% | 927.9 hPa | 0.25 mm | - | - | - |
| 1778079061 | 15.56° C | 74% | 928 hPa | 0.25 mm | - | - | - |
| 1778079001 | 15.56° C | 71% | 928.3 hPa | 0.25 mm | - | - | - |
| 1778078881 | 16.67° C | 68% | 928.2 hPa | 0.25 mm | - | - | - |
| 1778078822 | 16.67° C | 66% | 928.2 hPa | 0.25 mm | - | - | - |
| 1778078762 | 17.22° C | 65% | 928.1 hPa | 0.25 mm | - | - | - |
| 1778078701 | 17.22° C | 62% | 928.4 hPa | 0.25 mm | - | - | - |
| 1778078581 | 17.22° C | 60% | 928.2 hPa | 0.25 mm | - | - | - |
| 1778078461 | 17.78° C | 59% | 928.2 hPa | 0.25 mm | - | - | - |
| 1778078402 | 17.78° C | 59% | 928.1 hPa | 0.25 mm | - | - | - |
| 1778078341 | 17.78° C | 60% | 928.3 hPa | 0.25 mm | - | - | - |
| 1778078222 | 17.78° C | 60% | 928.1 hPa | 0.25 mm | - | - | - |
| 1778077921 | 17.78° C | 58% | 928.1 hPa | 0.25 mm | - | - | - |
| 1778077861 | 17.78° C | 59% | 927.9 hPa | 0.25 mm | - | - | - |
| 1778077681 | 17.78° C | 54% | 928.1 hPa | 0.25 mm | - | - | - |
* Rain since midnight (hover to see other rain measurements)
** Current wind speed in m/s (hover to see current wind gust speed)